www.pogodaiklimat.ru

Погода и климат >> Архив погоды >> Италия >> Неаполь


АРХИВ ПОГОДЫ в Неаполе

Время (UTC), дата Ветер
(напр.,м/с)
 
Видим.   Явления Облачность Т
(С)
Тd
(С)
f
(%)
Тe
(С)
Тes
(С)
Комфортность P
(гПа)
Po
(гПа)
Тmin
(С)
Tmax
(С)
R
(мм)
R24
(мм)
S
(см)
15 14.05 В 5 10 км 8/8 750 м
[Cu Sc]
+16.2 +7.2 55 +15 +16 холодно 1011.4 1000.7
18 14.05 В 2 10 км 8/8 600 м
[Cu Sc Ac trans]
+13.8 +7.0 64 +13 +13 холодно 1012.3 1001.5 +19.0
21 14.05 В 5 15 км 8/3 600 м
[Cu hum Ac trans]
+13.2 +5.0 58 +11 +11 холодно 1012.3 1001.6
00 15.05 СВ 3 15 км 6/1 600 м
[Cu hum Ac trans]
+12.0 +5.1 63 +11 +11 прохладно 1011.7 1001.0
03 15.05 С 3 12 км слаб. дождь 8/3 600 м
[Cu med, cong Ac trans]
+11.0 +5.7 70 +9 +9 холодно 1010.8 1000.1
06 15.05 С 2 20 км 8/8 1500 м
[Sc]
+11.9 +7.4 74 +11 +12 холодно 1010.4 999.7 +10.0 0.6
09 15.05 нст 2 20 км 10/6 1200 м
[Sc As op]
+14.9 +8.3 65 +15 +16 холодно 1010.8 1000.1
12 15.05 ЮЗ 3 30 км 9/4 1050 м
[St]
+16.1 +9.5 65 +16 +22 очень
холодно
1010.5 999.8
15 15.05 В 3 10 км слаб. морось 9/3 600 м
[Cb calv Ac lent]
+15.6 +9.8 68 +15 +16 холодно 1009.2 998.6
18 15.05 З 2 4000 м гроза, ливневой дождь 10/10 450 м
[Cb cap]
+12.8 +11.1 89 +12 +12 очень
холодно
1010.5 999.8 +17.4 5
21 15.05 В 3 7000 м дымка {дождь} 9/9 600 м
[Cb calv]
+11.3 +10.5 95 +9 +9 очень
холодно
1010.0 999.3
00 16.05 В 4 н/о н/о +12.1 +8.8 80 +10 +10 холодно 1009.0 998.3 17
03 16.05 СВ 4 н/о н/о +11.6 +8.6 82 +10 +10 холодно 1008.0 997.3
06 16.05 В 5 20 км 6/6 600 м
[Sc]
+12.8 +7.6 71 +11 +12 холодно 1008.9 998.2 +11.1 17
09 16.05 В 7 30 км 6/6 1050 м
[Cu Sc]
+15.3 +8.9 66 +14 +15 холодно 1009.8 999.1
12 16.05 В 6 30 км 6/6 900 м
[Cu Sc]
+18.4 +8.9 54 +18 +22 холодно 1009.7 999.0
15 16.05 В 4 30 км 5/1 900 м
[Cu med, cong Ac trans]
+19.0 +8.5 51 +20 +23 по сезону 1009.5 998.8
18 16.05 В 2 20 км 3/3 1200 м
[Sc diur, vesp]
+17.4 +8.9 57 +18 +18 по сезону 1010.3 999.6 +19.4
21 16.05 С 2 20 км ясно +14.2 +8.7 69 +14 +14 прохладно 1011.4 1000.7
00 17.05 С 2 20 км ясно +12.5 +8.6 77 +12 +12 прохладно 1010.9 1000.2
03 17.05 20 км ясно +11.0 +8.4 84 1010.2 999.5
06 17.05 30 км ясно +14.3 +8.7 69 1011.0 1000.3 +9.5
09 17.05 ЮЗ 3 30 км 3/3 900 м
[Cu hum]
+18.6 +9.6 56 +19 +29 по сезону 1011.3 1000.6
12 17.05 ЮЗ 5 30 км 3/3 900 м
[Cu med, cong]
+19.2 +13.0 67 +20 +28 прохладно 1010.7 1000.0
15 17.05 ЮЗ 4 15 км 5/3 750 м
[Cu med, cong Ci fib]
+19.4 +11.2 59 +21 +24 комфорт 1009.5 998.8
18 17.05 ЮЗ 2 15 км 8/3 900 м
[Cu med, cong Ci sp]
+17.3 +11.1 67 +18 +18 по сезону 1008.6 997.9 +19.9
21 17.05 15 км 4/0
[Ci fib]
+16.5 +10.6 68 1008.8 998.1
00 18.05 СЗ 2 25 км ясно +13.3 +10.9 85 +13 +13 прохладно 1008.4 997.8
03 18.05 Ю 2 н/о н/о +16.3 +12.6 79 +17 +17 по сезону 1006.9 996.3
06 18.05 Ю 3 10 км 8/4 900 м
[Cb calv Ac trans]
+17.3 +12.8 75 +17 +18 по сезону 1006.9 996.2 +12.8 0.2
09 18.05 Ю 4 10 км 9/9 600 м
[Cb calv]
+18.8 +13.4 71 +20 +21 по сезону 1007.2 996.5
12 18.05 Ю 6 10 км 9/9 450 м
[Cu Sc]
+19.2 +14.4 74 +20 +21 прохладно 1007.8 997.1
15 18.05 Ю 5 25 км 6/6 750 м
[Cu med, cong]
+19.2 +13.7 70 +20 +22 по сезону 1006.9 996.2
18 18.05 ЮЗ 3 20 км 6/6 600 м
[Cu med, cong]
+17.3 +13.1 76 +17 +17 прохладно 1007.8 997.1 +20.1
21 18.05 15 км 3/3 900 м
[Cu hum]
+15.4 +13.1 86 1008.1 997.4
00 19.05 ЮВ 1 10 км ясно +15.2 +13.4 89 +16 +16 по сезону 1007.1 996.5
03 19.05 В 1 10 км 3/3 600 м
[Cu hum]
+14.1 +12.3 89 +14 +14 прохладно 1005.5 994.9
06 19.05 нст 1 20 км 8/8 600 м
[Cu med, cong]
+16.1 +13.6 85 +17 +18 по сезону 1005.7 995.1 +13.9
09 19.05 ЮЗ 5 25 км 8/8 600 м
[Cu med, cong]
+17.6 +13.3 76 +17 +19 прохладно 1005.8 995.2
12 19.05 З 7 н/о н/о +19.5 +11.9 61 +20 +20 прохладно 1007.0 996.3 0.2
15 19.05 З 7 15 км 5/5 750 м
[Cu med, cong]
+18.3 +10.4 60 +18 +19 прохладно 1007.8 997.1
18 19.05 З 4 15 км 5/5 750 м
[Cu med, cong]
+15.9 +9.7 67 +15 +15 холодно 1009.4 998.7 +19.8 0.2
21 19.05 ЮЗ 2 10 км 4/4 750 м
[Cu med, cong Ci fib]
+15.2 +10.5 74 +15 +15 прохладно 1010.1 999.4
00 20.05 ЮЗ 2 15 км 4/4 900 м
[Cu med, cong]
+14.7 +11.0 78 +15 +15 по сезону 1009.8 999.2
03 20.05 ЮЗ 2 12 км 6/3 750 м
[Cu hum Ac trans]
+15.2 +12.2 82 +15 +15 по сезону 1009.3 998.6
06 20.05 ЮЗ 3 15 км гроза без осадков 9/9 450 м
[Cb calv]
+16.2 +12.5 79 +16 +16 по сезону 1009.9 999.2 +14.1
09 20.05 В 3 8000 м слаб. дождь {гроза} 8/8 360 м
[Cu med, cong]
+12.3 +10.8 91 +11 +13 очень
холодно
1011.8 1001.1
12 20.05 Ю 5 20 км 6/3 450 м
[Cu med, cong]
+18.3 +12.6 69 +18 +24 холодно 1011.8 1001.1 18
15 20.05 Ю 3 10 км слаб. морось {гроза} 9/9 450 м
[Cb calv]
+15.2 +9.8 70 +15 +15 холодно 1012.4 1001.7
18 20.05 ЮЗ 3 10 км 9/9 450 м
[Cb calv]
+15.1 +10.8 75 +15 +15 холодно 1012.4 1001.7 +18.9 19
21 20.05 ЮЗ 2 10 км 6/6 600 м
[Cu Sc]
+14.7 +11.1 79 +15 +15 прохладно 1013.6 1002.9
00 21.05 ЮЗ 2 10 км 6/4 750 м
[Cu med, cong Ac trans]
+15.3 +11.3 77 +15 +15 по сезону 1013.5 1002.8
03 21.05 ЮЗ 3 10 км 8/8 750 м
[Cu Sc]
+15.5 +12.8 84 +15 +15 по сезону 1013.2 1002.5
06 21.05 З 3 12 км слаб. дождь 9/9 900 м
[Sc]
+15.2 +12.6 84 +15 +15 прохладно 1014.0 1003.3 +14.1 2
09 21.05 З 5 10 км 9/9 600 м
[Cb calv]
+17.8 +11.2 65 +17 +18 прохладно 1015.6 1004.9
12 21.05 З 5 10 км 8/8 600 м
[Cu hum]
+20.4 +11.1 55 +22 +24 комфорт 1016.4 1005.7

 

Местоположение метеостанции Неаполь (Италия): широта 40.85 долгота 14.30 высота над уровнем моря 72 м.

В архиве по умолчанию представлена погода в Неаполе за последнюю неделю. Архивные данные за месяц целиком и за предыдущие месяцы, начиная с января 2011 года, Вы можете получить, выбрав интересующий диапазон дат из раскрывающегося списка и нажав кнопку "Ввод!".


*Определитесь, кто Вы:
робот инопланетянин человек

Внимание! Время в таблицах - всемирное. Для получения местного времени необходимо прибавить поправку, которая равна 1 ч.

Смотрите также архив погоды в соседних городах и на ближайших метеорологических станциях:

Погода в Казерте (Италия) (25 км)
Погода в Граццанизе (Италия) (29 км)
Погода на Капри (Италия) (34 км)
Погода в Тревико (Италия) (81 км)
Погода в Кампобассо (Италия) (85 км)
Погода в Торре-Олеволе (Италия) (109 км)
Погода на Понце (Италия) (114 км)
Погода во Фрозиноне (Италия) (121 км)
Погода на Капо Палинуро (Италия) (124 км)
Погода в Фучино (Италия) (138 км)

Пояснения к столбцам:

Ветер - указаны скорость ветра в м/с - средняя за 10 мин, порывы в срок и между сроками (в фигурных скобках) и направление, откуда дует ветер: С - северный, СВ - северо-восточный, В - восточный, ЮВ - юго-восточный, Ю - южный, ЮЗ - юго-западный, З - западный, СЗ - северо-западный.
Видимость - горизонтальная дальность видимости в метрах или километрах. При видимости от 1 до 10 км при отсутствии осадков обычно наблюдается дымка, при ухудшении видимости до 1 км и менее - туман. В сухую погоду видимость может ухудшаться дымом, пылью или мглою.
Явления - указаны атмосферные явления, наблюдавшиеся в срок или в последний час перед сроком; фигурными скобками обозначены явления, наблюдавшиеся между сроками (за 1-3 часа до срока); квадратными скобками обозначены град или гололедные отложения с указанием их диаметра в мм.
Облачность - указаны через наклонную черту общая и нижняя облачность в баллах и высота нижней границы облаков в метрах; квадратными скобками обозначены формы облаков: Ci - перистые, Cs - перисто-слоистые, Cc - перисто-кучевые, Ac - высококучевые, As - высокослоистые, Sc - слоисто-кучевые, Ns - слоисто-дождевые, Cu - кучевые, Cb - кучево-дождевые. Подробнее классификацию облаков см. в Атласе облаков (PDF).
T - Температура воздуха - температура, измеренная на высоте 2 м над землей.
Td - Температура точки росы - температура, при понижении до которой содержащийся в воздухе водяной пар достигнет насыщения.
f - Относительная влажность воздуха - влажноcть воздуха, измеренная на высоте 2 м над землей.
Te - Эффективная температура - температура, которую ощущает одетый по сезону человек в тени. Характеристика душности погоды. При расчете учитывается влияние влажности воздуха и скорости ветра на теплоощущения человека.
Tes - Эффективная температура на солнце - температура, которую ощущает человек, с поправкой на солнечный нагрев. Характеристика знойности погоды. Зависит от высоты солнца над горизонтом, облачности и скорости ветра. Ночью, в пасмурную погоду, а также при ветре 12 м/с и более поправка равна нулю.
P - Атмосферное давление - приведенное к уровню моря атмосферное давление.
Po - Атмосферное давление - измеренное на уровне метеостанции атмосферное давление.
Tmin - Минимальная температура - минимум температуры воздуха на высоте 2 м над землей.
Tmax - Максимальная температура - максимум температуры воздуха на высоте 2 м над землей.
R - Количество осадков - Количество выпавших осадков за период времени, мм. При наведении курсора мыши на число - период времени, за который выпало указанное количество осадков.
R24 - Количество осадков - Количество выпавших осадков за 24 часа, мм.
S - Снежный покров - Высота снежного покрова, см. При наведении курсора мыши на число - состояние снежного покрова и степень покрытия местности в баллах.